Simultaneous Nadir Overpasses (SNOs) Predictions

Prediction of SNOs over PacNW region [( 10.00, 139.50) to ( 22.70, 165.60)] between AQUA and NPP Satellites:

Table of predicted SNOs over PacNW region for the next 30.0 days since TLE Epoch: 10/29/2022
Index Date (AQUA) Time (AQUA) AQUA Lat,Lon Date (NPP) Time (NPP) NPP Lat,Lon Distance(km) Time Diff (sec)
1 11/02/2022 15:35:59 22.64, 154.87 11/02/2022 15:37:18 23.53, 150.94 414.54 79
2 11/05/2022 03:56:55 22.66, 142.74 11/05/2022 03:53:26 22.02, 139.54 337.31 209
3 11/13/2022 03:04:34 22.68, 155.88 11/13/2022 03:02:36 21.95, 152.28 379.94 118
4 11/21/2022 03:48:47 14.85, 146.15 11/21/2022 03:50:57 13.85, 141.57 505.06 130
5 11/23/2022 15:49:45 11.48, 149.79 11/23/2022 15:46:40 12.09, 146.69 345.09 185
